TimePDT,TemperatureF,Dew PointF,Humidity,Sea Level PressureIn,VisibilityMPH,Wind Direction,Wind SpeedMPH,Gust SpeedMPH,PrecipitationIn,Events,Conditions,WindDirDegrees,DateUTC
12:53 AM,60.1,46.0,60,29.78,10.0,Calm,Calm,-,N/A,,Mostly Cloudy,0,2013-05-06 07:53:00
1:53 AM,55.9,46.0,69,29.78,10.0,South,4.6,-,N/A,,Clear,170,2013-05-06 08:53:00
2:53 AM,54.0,46.0,75,29.79,10.0,Calm,Calm,-,N/A,,Clear,0,2013-05-06 09:53:00
3:53 AM,51.1,45.0,80,29.81,10.0,Calm,Calm,-,N/A,,Clear,0,2013-05-06 10:53:00
4:53 AM,52.0,45.0,77,29.83,10.0,Calm,Calm,-,N/A,,Clear,0,2013-05-06 11:53:00
5:53 AM,51.1,45.0,80,29.85,10.0,Calm,Calm,-,N/A,,Clear,0,2013-05-06 12:53:00
6:53 AM,53.1,46.0,77,29.87,10.0,Calm,Calm,-,N/A,,Clear,0,2013-05-06 13:53:00
7:53 AM,55.9,46.9,72,29.88,10.0,Calm,Calm,-,N/A,,Overcast,0,2013-05-06 14:53:00
8:53 AM,57.9,48.0,70,29.90,10.0,Calm,Calm,-,N/A,,Overcast,0,2013-05-06 15:53:00
9:53 AM,60.1,48.0,64,29.90,10.0,Calm,Calm,-,N/A,,Mostly Cloudy,0,2013-05-06 16:53:00
10:53 AM,62.1,48.0,60,29.90,10.0,Calm,Calm,-,N/A,,Overcast,0,2013-05-06 17:53:00
11:53 AM,66.0,48.9,54,29.88,10.0,South,6.9,-,N/A,,Scattered Clouds,190,2013-05-06 18:53:00
12:53 PM,68.0,46.9,47,29.86,10.0,Calm,Calm,-,N/A,,Scattered Clouds,0,2013-05-06 19:53:00
1:53 PM,69.1,46.9,45,29.83,10.0,Calm,Calm,-,N/A,,Clear,0,2013-05-06 20:53:00
2:53 PM,73.9,46.9,38,29.80,10.0,WNW,4.6,-,N/A,,Scattered Clouds,300,2013-05-06 21:53:00
3:53 PM,75.0,46.9,37,29.78,10.0,West,8.1,-,N/A,,Scattered Clouds,260,2013-05-06 22:53:00
4:53 PM,77.0,46.9,34,29.76,10.0,West,9.2,-,N/A,,Clear,280,2013-05-06 23:53:00
5:53 PM,73.0,48.0,41,29.78,10.0,SSE,15.0,-,0.00,Rain,Light Rain,150,2013-05-07 00:53:00
6:53 PM,64.0,55.9,75,29.82,10.0,SE,19.6,26.5,0.00,Rain,Light Rain,140,2013-05-07 01:53:00
7:53 PM,61.0,57.9,90,29.83,10.0,NW,10.4,-,0.10,Rain,Light Rain,320,2013-05-07 02:53:00
8:53 PM,61.0,57.0,87,29.88,10.0,WNW,5.8,-,0.02,Rain,Light Rain,300,2013-05-07 03:53:00
9:53 PM,60.1,55.0,83,29.91,10.0,WNW,5.8,-,0.00,Rain,Light Rain,290,2013-05-07 04:53:00
10:53 PM,59.0,54.0,83,29.92,10.0,West,5.8,-,0.01,,Overcast,280,2013-05-07 05:53:00
11:53 PM,57.9,53.1,84,29.92,10.0,Calm,Calm,-,N/A,,Mostly Cloudy,0,2013-05-07 06:53:00